Regional Weather Roundup
Issued by NWS

Home | Current Version | Previous Version | Graphics & Text | Print | Product List | Glossary Off
Versions: 1 2 3 4 5 6 7 8 9 10 11 12 13 14 15 16 17 18 19 20 21 22 23 24 25 26 27 28 29 30 31 32 33 34 35 36 37 38 39 40 41 42 43 44 45 46 47 48 49 50

000
ASUS45 KBOU 202307
RWRCO

WEATHER ROUNDUP FOR COLORADO
NATIONAL WEATHER SERVICE DENVER/BOULDER CO
500 PM MDT WED SEP 20 2017

NOTE: "FAIR" INDICATES FEW OR NO CLOUDS BELOW 12000 FEET WITH NO
SIGNIFICANT WEATHER AND/OR OBSTRUCTIONS TO VISIBILITY.

COZ001>005-013-030-031-210000-
...NORTHWEST COLORADO...

CITY           SKY/WX    TMP DP  RH WIND       PRES   REMARKS
CRAIG          FAIR      75  27  17 SW25G33   29.85F
HAYDEN         FAIR      73  32  22 SW14G26   29.88F
MEEKER         FAIR      75  31  19 SW25G36   29.87F
RABBIT EARS PA FAIR      54  32  43 W7        30.15S
STEAMBOAT SPGS FAIR      71  33  24 SW12      29.90F
WALDEN         FAIR      63  30  29 SW17G26   29.99S
$$

COZ006>008-011-210000-
...WEST CENTRAL VALLEYS...

CITY           SKY/WX    TMP DP  RH WIND       PRES   REMARKS
GRAND JUNCTION FAIR      81  35  19 E3        29.79F
MONTROSE       FAIR      79  28  15 W20       29.90S
EAGLE          FAIR      76  30  18 S26G33    29.90F
RIFLE          FAIR      78  33  19 W16G26    29.83F
DELTA          FAIR      85  27  12 S16       29.85F
NUCLA          FAIR      79  23  12 S20G30    29.96F
$$

COZ017>023-064>068-210000-
...SOUTHWEST COLORADO...

CITY           SKY/WX    TMP DP  RH WIND       PRES   REMARKS
DURANGO        FAIR      76  28  17 SW9G23    30.02F
CORTEZ         FAIR      80  26  13 S13       29.96F
PAGOSA SPRINGS FAIR      72  18  12 SW12G21   30.10F
TELLURIDE      FAIR      66  23  19 SE10G28   30.16R
WOLF CREEK PAS FAIR      48  27  43 S25G38    30.37S
$$

COZ009-010-012-014-032>034-037-058>063-210000-
...CENTRAL COLORADO...

CITY           SKY/WX    TMP DP  RH WIND       PRES   REMARKS
ASPEN          FAIR      73  23  15 S10       29.98S
BUENA VISTA    FAIR      74  19  12 S16G24    29.99R
COPPER MTN     FAIR      59  18  20 W22G29    30.26S
BERTHOUD PASS  FAIR      50  41  71 W18G36    30.30R
COTTONWOOD PAS FAIR      70  18  13 SW20      30.13R
GUNNISON       FAIR      73  26  17 W14G29    29.99F
KREMMLING      FAIR      77  27  15 W15G22    29.95S
LEADVILLE      FAIR      63  14  15 SW16G25   30.11S
MONARCH PASS   FAIR      54  23  30 SW23G30   30.39S
SALIDA         CLOUDY    79  23  12 W9        30.02F
SUNLIGHT       FAIR      54  28  37 S14G23    30.21R
WILKERSON PASS FAIR      55  25  30 S8G16     30.25R
$$

COZ069>075-210000-
...SAN LUIS VALLEY/SANGRE DE CRISTO MOUNTAINS...

CITY           SKY/WX    TMP DP  RH WIND       PRES   REMARKS
ALAMOSA        FAIR      75  25  15 SW18G25   30.04S
DEL NORTE      FAIR      71  28  20 SW18G24   30.07S
LA VETA PASS   FAIR      63  23  22 MISG      30.31S
SAGUACHE       FAIR      75  28  17 SW9G23    30.00S
$$

COZ035-036-038>040-210000-
...NORTHERN COLORADO FRONT RANGE...

CITY           SKY/WX    TMP DP  RH WIND       PRES   REMARKS
DENVER INTL AP FAIR      79  28  15 SE15      29.81F
DMNS CITY PARK   N/A     77  31  18 NW6G17    29.80S
AURORA         MOSUNNY   77  30  18 S17       29.83F
FRONT RANGE AP MOSUNNY   81  28  15 S14G22    29.83
ERIE MUNI ARPT FAIR      75  32  20 W8        29.86F
BOULDER MUN AP FAIR      73  32  21 SW3       29.83S
CENTENNIAL     FAIR      76  28  17 S14       29.84S
BROOMFIELD     MOSUNNY   75  32  20 N8        29.85F
FORT COLLINS   FAIR      76  36  23 VRB3      29.82F
LONGMONT       FAIR      78  33  19 W3        29.83S
$$

COZ041-046-047-076>085-087-088-210000-
...PIKES PEAK/PALMER DIVIDE AND SOUTHERN FOOTHILLS...

CITY           SKY/WX    TMP DP  RH WIND       PRES   REMARKS
COLO. SPRINGS  FAIR      70  30  22 SE21      29.96F
A. F. ACADEMY  SUNNY     68  27  21 S17G28    29.95S
SCHRIEVER AFB  FAIR      68  27  21 S18       29.96F
CHEYENNE MTN   FAIR      63  28  26 S14G22    29.94S
ELLICOTT         N/A    N/A N/A N/A S16G24    29.95F
FALCON         FAIR      66  26  21 S24G31    30.00S
FORT CARSON    FAIR      72  30  20 S13G21    29.93F
LIMON          FAIR      71  28  20 SE26G35   29.91F
MONUMENT HILL  FAIR      64  28  25 S32G39    29.95S
CANON CITY     SUNNY     77  32  19 NE8       29.90F
WALSENBURG     NOT AVBL
TRINIDAD       FAIR      80  35  19 S23G31    29.90F
$$

COZ042>045-048>051-090-091-210000-
...NORTHEAST COLORADO...

CITY           SKY/WX    TMP DP  RH WIND       PRES   REMARKS
GREELEY ARPT   FAIR      80  33  18 SE15      29.80F
AKRON          FAIR      75  25  15 S20G28    29.87F
BURLINGTON     FAIR      76  30  18 SE20G25   29.91S
WRAY           FAIR      79  25  13 S15G21    29.88S
YUMA           FAIR      73  32  21 SE14G23   29.87S
STERLING       FAIR      77  32  19 S21       29.83S
HOLYOKE        NOT AVBL
FORT MORGAN    FAIR      77  24  14 S20G25    29.84S
$$

COZ086-089-092>099-210000-
...SOUTHEAST COLORADO...

CITY           SKY/WX    TMP DP  RH WIND       PRES   REMARKS
PUEBLO         FAIR      79  31  17 E17G23    29.85F
LA JUNTA       FAIR      80  32  17 SE22      29.86F
LAMAR          FAIR      80  32  17 SE13G22   29.87F
SPRINGFIELD      N/A     74  38  27 S12       29.93F
$$



USA.gov is the U.S. government's official web portal to all federal, state and local government web resources and services.